Preview of NWS' New Version of Forecast
This preview is not operational and should not be used for support decisions.
Latest weather observations around

Chanute, Chanute Martin Johnson Airport (KCNU)

Using English Units (Switch to International System of Units)
Date/ Time (CDT) Wind (mph) Vis. (mi) Weather Sky Cond. Temp (°F) Rel. Humidity Wind Chill (°F) Heat Index (°F) Pressure Precip. (in)
Air Dwpt 6 hour Altimeter (inHg) Sea level (inHg) 1 hr 3 hr 6 hr
Max Min
Sep 23 11:52 ESE 9 10 Clear CLR 77 60     56%   77 30.12 30.1      
Sep 23 10:52 E 10 10 Clear CLR 74 61     64%   74 30.12 30.1      
Sep 23 09:52 ENE 6 10 Clear CLR 69 63     81%     30.12 30.1      
Sep 23 08:52 ESE 9 10 Clear CLR 65 62     90%     30.11 30.09      
Sep 23 07:52 E 3 6 Fog/Mist CLR 61 60     97%     30.11 30.08      
Sep 23 06:52 E 3 10 Clear CLR 60 58     93%     30.09 30.06      
Sep 23 05:52 E 3 6 Fog/Mist CLR 59 56     90%     30.07 30.05      
Sep 23 05:30 Calm 4 Fog/Mist CLR 58 56     93%     30.07        
Sep 23 05:27 Calm 1.5 Fog/Mist CLR 58 56     93%     30.07        
Sep 23 05:07 Calm 1 Fog/Mist CLR 58 56     93%     30.07        
Sep 23 05:04 Calm 1.75 Fog/Mist CLR 57 55     93%     30.07        
Sep 23 04:56 NNE 3 3 Fog/Mist CLR 59 57     93%     30.07        
Sep 23 04:54 Calm 1.5 Fog/Mist CLR 59 56     90%     30.07        
Sep 23 04:52 Calm 1 Fog/Mist CLR 59 56     90%     30.07 30.05      
Sep 23 04:11 Calm 0.75 Fog/Mist CLR 60 57     90%     30.07        
Sep 23 03:59 Calm 1.25 Fog/Mist CLR 61 57     87%     30.07        
Sep 23 03:52 Calm 2 Fog/Mist CLR 60 58     93%     30.08 30.05      
Sep 23 02:52 Calm 10 Clear CLR 62 60     93%     30.06 30.03      
Sep 23 01:52 N 3 10 Clear CLR 63 60     90%     30.06 30.03      
Sep 23 00:52 Calm 10 Clear CLR 64 61     90%     30.06 30.03      
Sep 22 23:52 N 6 10 Clear CLR 65 62     90%     30.05 30.03      
Sep 22 22:52 N 5 10 Clear CLR 68 63     84%     30.04 30.01      
Sep 22 21:52 N 6 10 Mostly Cloudy BKN047 70 64     81%     30.02 29.99      
Sep 22 20:52 N 8 10 Cloudy BKN047 OVC060 72 65     79%   73 30 29.97      
Sep 22 19:52 N 8 10 Clear   74 66     76%   75 29.97 29.94      
Sep 22 18:52 NW 8 10 Mostly Cloudy BKN044 77 68     74%   78 29.93 29.9     1
Sep 22 17:52 SW 6 10 Cloudy BKN038 OVC060 78 74     87%   80 29.9 29.87 0    
Sep 22 17:35 SW 7 10 Cloudy BKN034 BKN044 OVC060 78 73     85%   80 29.9   0    
Sep 22 17:20 SW 5 10 Cloudy BKN033 BKN041 OVC060 78 73     85%   80 29.89   0    
Sep 22 17:06 WSW 5 6 Light Rain and Fog/Mist SCT015 BKN032 BKN045 76 73     91%   77 29.88   0    
Sep 22 17:01 Calm 2 Thunderstorms and Rain and Fog/Mist SCT017 BKN036 OVC047 76 73     91%   77 29.88   0    
Sep 22 16:59 Calm 1 Thunderstorms and Rain and Fog/Mist SCT017 BKN033 OVC060 76 72     88%   77 29.88   0    
Sep 22 16:52 W 8 0.25 Thunderstorms and Heavy Rain and Fog SCT010 BKN018 BKN033 76 72     88%   77 29.89 29.85 1    
Sep 22 16:48 W 8 0.5 Heavy Rain FEW008 BKN018 BKN030 77 72     83%   78 29.89   0    
Sep 22 16:45   1 Rain FEW008 SCT018 BKN030 78 72     82%   79 29.9   0    
Sep 22 16:10 SSW 14 10 Partly Cloudy FEW019 SCT028 SCT035 82 74     77%   88 29.88        
Sep 22 15:52 SSW 15 10 Mostly Cloudy SCT019 BKN026 83 74     74%   89 29.88 29.84      
Sep 22 15:47 SSW 11 10 Mostly Cloudy SCT019 BKN026 82 73     74%   88 29.88        
Sep 22 15:01 SSW 16 10 Cloudy FEW015 BKN033 OVC070 81 73     77%   86 29.88        
Sep 22 14:52 SSW 14 10 Cloudy FEW013 BKN027 OVC070 81 74     79%   86 29.89 29.85      
Sep 22 14:30 SSW 14 10 Cloudy SCT014 BKN023 OVC070 80 74     82%   85 29.89        
Sep 22 13:59 SSW 16 10 Mostly Cloudy BKN014 BKN075 80 74     82%   85 29.89        
Sep 22 13:52 SSW 18 10 Mostly Cloudy SCT014 BKN070 80 73     79%   84 29.89 29.85      
Sep 22 13:30 SSW 15 10 Cloudy SCT014 OVC070 78 73     85%   80 29.91        
Sep 22 12:52 SSW 13 10 Cloudy FEW008 BKN013 OVC065 77 73     88%   79 29.91 29.88 0   2
Sep 22 12:38 SSW 10 10 Cloudy SCT008 BKN013 OVC070 76 73     91%   77 29.91   0    
Sep 22 12:02 SSW 11 10 Cloudy SCT009 BKN022 OVC065 75 71     88%   76 29.92   0    
Sep 22 11:52 SSW 13 10 Light Rain BKN009 OVC022 74 71     91%   75 29.93 29.9 0    
Sep 22 10:52 SW 14 10 Light Rain BKN006 OVC013 74 71     91%   75 29.92 29.89 0    
Sep 22 10:31 SW 10 3 Light Rain and Fog/Mist BKN006 OVC012 74 71     91%   75 29.92   0    
Sep 22 10:21 SSW 5 1.75 Rain and Fog/Mist BKN006 BKN010 OVC022 72 69     91%   73 29.92   0    
Sep 22 10:15 W 7 5 Light Rain and Fog/Mist BKN006 OVC012 72 69     91%   73 29.92   0    
Sep 22 10:00 SSW 9 4 Light Rain and Fog/Mist SCT006 BKN012 OVC021 72 70     93%   73 29.91   0    
Sep 22 09:52 S 10 2.5 Rain and Fog/Mist SCT008 BKN014 OVC038 71 69     93%   72 29.91 29.88 0 2  
Sep 22 09:48 S 11 2 Heavy Rain and Fog/Mist SCT008 BKN014 OVC038 72 68     88%   73 29.91   0    
Sep 22 09:34 S 9 1.75 Heavy Rain and Fog/Mist BKN008 BKN014 OVC022 70 68     93%     29.91   0    
Sep 22 09:18 SSW 8 3 Rain and Fog/Mist BKN008 BKN014 OVC020 70 68     93%     29.91   0    
Sep 22 09:12 SW 6 4 Rain and Fog/Mist BKN014 OVC020 70 67     90%     29.91   0    
Sep 22 08:52 SSW 8 10 Light Rain BKN017 BKN023 OVC032 70 67     90%     29.91 29.88 1    
Sep 22 08:47 SSW 8 6 Light Rain and Fog/Mist BKN017 OVC025 70 66     88%     29.9   1    
Sep 22 08:37 WSW 7 2 Rain and Fog/Mist BKN021 BKN028 OVC035 70 67     90%     29.91   1    
Sep 22 08:27 WSW 9 1.25 Heavy Rain and Fog/Mist BKN026 OVC033 70 67     90%     29.9   1    
Sep 22 08:22 W 10 2.5 Heavy Rain and Fog/Mist BKN027 OVC034 70 67     90%     29.91   1    
Sep 22 08:14 WSW 13 1.5 Heavy Rain and Fog/Mist BKN027 OVC032 70 67     90%     29.9   1    
Sep 22 08:10 WSW 13 1 Heavy Rain and Fog/Mist BKN027 OVC034 69 66     90%     29.9   0    
Sep 22 08:03 WSW 11 1.25 Heavy Rain and Fog/Mist BKN025 OVC034 69 66     90%     29.9   0    
Sep 22 07:52 SW 15 1.75 Heavy Rain and Fog/Mist FEW006 BKN026 OVC045 70 66     87%     29.9 29.87 0    
Sep 22 07:50 SW 14 1.75 Heavy Rain and Fog/Mist SCT008 BKN026 OVC045 70 66     88%     29.9   0    
Sep 22 07:42 SW 16 1.25 Heavy Rain and Fog/Mist SCT006 BKN011 OVC022 71 68     90%   72 29.9   0    
Sep 22 07:36   1 Heavy Rain and Fog/Mist SCT006 BKN011 OVC016 73 70     90%   74 29.91   0    
Sep 22 07:29 SSW 14 1.75 Heavy Rain and Fog/Mist BKN008 OVC013 74 71     91%   75 29.89   0    
Sep 22 07:07 S 15 3 Rain and Fog/Mist BKN009 BKN015 OVC022 74 71     91%   75 29.87   0    
Sep 22 06:58 S 14 2 Heavy Rain and Fog/Mist SCT007 BKN013 OVC024 74 71     91%   75 29.88   0    
Sep 22 06:52 S 15 4 Rain and Fog/Mist FEW009 BKN015 OVC022 74 71     91%   75 29.88 29.85 0   0
Sep 22 05:59 S 10 10 Light Rain SCT025 BKN029 OVC055 74 70     87%   75 29.9   0    
Sep 22 05:52 S 8 10 Cloudy BKN031 BKN040 OVC055 74 70     87%   75 29.9 29.87 0    
Sep 22 04:52 S 10 10 Light Rain SCT120 74 70     87%   75 29.91 29.87 0    
Sep 22 03:52 S 16 10 Mostly Cloudy FEW043 SCT055 BKN085 76 69     79%   77 29.93 29.89      
Sep 22 02:52 S 16 10 Mostly Cloudy SCT075 BKN090 BKN110 77 69     77%   78 29.93 29.9      
Sep 22 01:52 S 15 10 Partly Cloudy SCT075 SCT090 77 69     77%   78 29.94 29.91      
Sep 22 00:52 S 18 10 Mostly Clear FEW080 77 69     77%   78 29.94 29.91     0
Sep 21 23:52 S 15 10 Clear CLR 77 68     74%   78 29.94 29.91      
Sep 21 22:52 S 15 10 Clear CLR 77 69     77%   78 29.93 29.9      
Sep 21 21:52 S 15 10 Clear CLR 77 69     77%   78 29.93 29.89   0  
Sep 21 20:52 SSE 14 10 Clear CLR 77 71     82%   78 29.93 29.9 0    
Sep 21 19:52 S 16 5 Rain FEW027 BKN085 OVC110 78 72     82%   79 29.95 29.92 0    
Sep 21 19:36 S 11 9 Light Rain BKN060 BKN090 OVC110 78 72     82%   79 29.96   0    
Sep 21 18:52 SSE 5 10 Light Rain FEW036 BKN048 BKN060 78 73     85%   80 29.96 29.93 0   0
Sep 21 18:34 Calm 10 Cloudy OVC036 77 74     90%   79 29.96   0    
Sep 21 18:03 NNW 9 3 Thunderstorms and Rain and Fog/Mist SCT040 BKN050 OVC070 77 73     88%   79 29.96   0    
Sep 21 17:52 S 5 1.5 Thunderstorms and Heavy Rain and Fog/Mist SCT050 BKN070 OVC100 77 73     88%   79 29.96 29.93 0    
Sep 21 17:49 SSE 8 1.75 Thunderstorms and Heavy Rain and Fog/Mist FEW032 BKN050 OVC100 77 73     89%   79 29.96   0    
Sep 21 17:44 S 13 2 Rain FEW032 BKN055 OVC100 78 73     85%   80 29.96   0    
Sep 21 17:24 S 13 9 Light Rain SCT030 BKN038 OVC046 79 73     82%   82 29.96   0    
Sep 21 16:52 S 11 10 Mostly Cloudy FEW033 BKN046 80 73     79%   84 29.96 29.93      
Sep 21 15:52 SSE 11 10 Partly Cloudy FEW020 SCT035 80 74     82%   85 29.97 29.93 0 0  
Sep 21 14:29 SE 10 10 Cloudy SCT013 BKN034 OVC041 73 69     87%   74 30   0    
Sep 21 14:18 SE 9 10 Cloudy BKN013 OVC035 72 68     87%   73 30.01   0    
Sep 21 13:52 SE 10 10 Light Rain SCT020 BKN029 OVC042 72 68     87%   73 30.02 29.98 0    
Sep 21 13:06 SSE 20 3 Light Rain and Fog/Mist BKN021 BKN031 OVC060 71 69     93%   72 30.03   0    
Sep 21 13:03 SSE 18 1.5 Light Rain and Fog/Mist BKN021 BKN036 OVC060 71 69     93%   72 30.03   0    
Sep 21 13:01   0.75 Rain and Fog/Mist BKN021 OVC036 71 69     93%   72 30.03   0    
Sep 21 12:52   0.5 Thunderstorms and Heavy Rain and Fog OVC023 71 68     90%   72 30.02 29.99 1   1
Sep 21 12:43 S 22 1 Thunderstorms and Heavy Rain and Fog/Mist OVC029 70 67     90%     30.03   1    
Sep 21 12:36 S 17 0.5 Thunderstorms and Heavy Rain and Fog OVC031 71 68     90%   72 30.04   1    
Sep 21 12:19   1 Thunderstorms and Heavy Rain and Fog/Mist BKN040 BKN070 OVC090 72 69     91%   73 30.04   0    
Sep 21 12:08 S 21 1.75 Thunderstorms and Heavy Rain and Fog/Mist FEW016 BKN046 OVC110 72 69     91%   73 30.03   0    
Sep 21 11:52 S 22 2.5 Heavy Rain and Fog/Mist FEW011 BKN085 OVC110 73 70     90%   74 30.02 29.99 0    
Sep 21 11:44 S 23 5 Light Rain and Fog/Mist FEW011 SCT055 BKN110 74 70     87%   75 30.01   0    
Sep 21 11:24 S 20 5 Light Rain and Fog/Mist BKN013 BKN060 75 71     88%   76 30.03   0    
Sep 21 10:52 S 20 10 Light Rain BKN017 OVC024 77 71     82%   78 30.03 29.99 0    
Sep 21 09:52 S 17 10 Cloudy BKN015 OVC026 77 71     82%   78 30.02 29.99 0 0  
Sep 21 09:47 S 16 10 Cloudy BKN015 OVC028 77 72     83%   78 30.02   0    
Sep 21 08:52 S 15 10 Cloudy OVC014 77 72     84%   78 30.01 29.98      
Sep 21 07:52 S 11 10 Cloudy OVC013 76 72     88%   77 30.01 29.98      
Sep 21 07:45 S 13 10 Cloudy OVC013 76 72     88%   77 30.01        
Sep 21 07:20 S 15 10 Cloudy BKN015 OVC032 76 72     88%   77 30        
Sep 21 06:52 S 16 10 Cloudy SCT014 OVC032 76 71     85%   77 30 29.96     0
Sep 21 06:50 S 17 10 Cloudy SCT014 OVC032 75 72     89%   77 30        
Sep 21 05:52 S 14 10 Mostly Cloudy SCT014 BKN020 75 71     88%   76 29.98 29.95      
Sep 21 05:04 SSE 11 10 Cloudy FEW010 SCT014 OVC021 75 71     88%   76 29.97        
Sep 21 04:52 S 13 9 Cloudy BKN013 OVC020 75 71     88%   76 29.98 29.95 0    
Sep 21 04:37 SSE 10 6 Fog/Mist BKN013 OVC020 75 71     88%   76 29.98   0    
Sep 21 03:52 S 13 10 Cloudy FEW015 BKN020 OVC039 75 71     88%   76 29.98 29.94      
Sep 21 03:25 S 11 10 Cloudy BKN015 BKN023 OVC033 75 71     88%   76 29.98        
Sep 21 02:52 S 11 10 Cloudy OVC013 75 71     88%   76 29.99 29.96      
Sep 21 01:52 SSE 11 10 Cloudy OVC012 75 71     88%   76 29.98 29.95      
Sep 21 01:16 SSE 14 10 Cloudy OVC011 74 70     87%   75 29.98        
Sep 21 00:52 SSE 11 10 Cloudy OVC009 74 70     87%   75 29.99 29.95     0
Sep 21 00:49 S 15 10 Cloudy OVC009 73 70     89%   75 29.99        
Sep 20 23:52 SSE 16 10 Cloudy OVC011 73 70     90%   74 29.99 29.96      
Sep 20 23:18 SSE 15 10 Cloudy BKN011 OVC024 73 70     90%   74 29.99        
Sep 20 22:52 SSE 14 10 Cloudy OVC008 73 70     90%   74 29.99 29.96      
Sep 20 21:52 SE 10 10 Cloudy BKN008 OVC016 74 71     91%   75 29.98 29.95 0 0  
Sep 20 21:19 SSE 10 4 Light Rain and Fog/Mist BKN010 OVC018 74 71     91%   75 29.98   0    
Sep 20 20:52 SE 9 10 Cloudy OVC021 74 70     87%   75 29.97 29.93      
Sep 20 19:52 SE 8 10 Cloudy OVC017 74 70     87%   75 29.96 29.93      
Sep 20 19:18 SSE 11 10 Clear   74 70     87%   75 29.96        
Sep 20 18:52 SE 9 10 Clear   74 71     91%   75 29.96 29.92     0
Sep 20 18:00 SSE 13 10 Cloudy OVC015 74 71     91%   75 29.95        
Sep 20 17:52 SSE 11 10 Cloudy OVC013 74 71     91%   75 29.95 29.92 0    
Sep 20 17:23 SSE 13 10 Clear   75 71     88%   76 29.95        
Sep 20 16:52 SSE 14 10 Clear   75 70     84%   76 29.96 29.93 0    
Sep 20 16:17 SSE 15 10 Cloudy BKN010 OVC017 75 71     88%   76 29.97        
Sep 20 15:59 SSE 14 8 Cloudy SCT010 OVC017 74 71     91%   75 29.97        
Sep 20 15:52 SSE 15 5 Fog/Mist BKN008 OVC015 74 70     87%   75 29.98 29.94 0 0  
Sep 20 15:10 SSE 17 3 Light Rain and Fog/Mist BKN007 OVC013 73 70     90%   74 29.98   0    
Sep 20 14:52 SSE 13 2.5 Light Rain and Fog/Mist BKN007 BKN013 OVC018 73 70     90%   74 29.99 29.96 0    
Sep 20 14:39 SSE 14 1.5 Rain and Fog/Mist BKN007 BKN011 OVC018 73 70     90%   74 29.99   0    
Sep 20 14:29 SSE 15 2.5 Light Rain and Fog/Mist BKN009 BKN015 OVC020 74 70     87%   75 30   0    
Sep 20 14:18 SE 14 5 Light Rain and Fog/Mist SCT007 BKN011 OVC021 74 70     87%   75 30   0    
Sep 20 13:52 SSE 14 4 Light Rain and Fog/Mist SCT009 BKN015 OVC021 74 70     87%   75 30 29.97 0    
Sep 20 13:00 SE 13 5 Light Rain and Fog/Mist BKN007 OVC012 74 71     91%   75 30.02   0    
Sep 20 12:52 SSE 15 2.5 Light Rain and Fog/Mist BKN007 OVC012 74 71     91%   75 30.02 29.99 0   0
Sep 20 12:37 SE 13 1.75 Light Rain and Fog/Mist BKN007 OVC012 73 70     90%   74 30.03   0    
Sep 20 12:15 SE 11 2.5 Light Rain and Fog/Mist BKN007 BKN012 OVC021 73 70     90%   74 30.04   0    
Sep 20 11:55 SSE 11 1.75 Light Rain and Fog/Mist BKN007 BKN016 OVC024 73 70     90%   74 30.04   0    
Sep 20 11:52 SSE 10 2 Light Rain and Fog/Mist SCT007 BKN016 OVC022 73 70     90%   74 30.04 30.01 0    
Sep 20 11:39 SSE 15 2.5 Light Rain and Fog/Mist SCT009 BKN016 OVC030 74 70     87%   75 30.04   0    
Sep 20 10:52 SSE 9 10 Cloudy OVC025 78 67     69%   79 30.03 30      
Notice The following observation data may not be complete
May 15 02:24   10 Light Rain OVC110          %         0    
May 15 02:09   8 Thunderstorms and Rain SCT090 OVC110 64 64     100%     29.99   0    
May 14 20:13 E 10 10 Thunderstorms SCT017 68 66     93%     29.85   0    
May 14 19:52   0.75 Thunderstorms and Heavy Rain and Fog/Mist OVC021 68 66     93%     29.84 29.81 1    
May 13 14:52 S 18 10 Clear CLR 87 71     59%   93 29.94 29.9      
May 13 11:52 S 17 10 Clear CLR 84 70     63%   88 29.98 29.95      
May 11 10:52   10 Clear CLR 78 64     62%   79 29.8 29.77      
Jun 12 00:52 S 11 10 Clear CLR 75 65     71%   76 29.9 29.86      
Jun 11 15:52   10 Clear CLR 89 68     50%   93 29.84 29.8      
Jun 11 13:52   10 Clear CLR 89 69     52%   94 29.87 29.83      
Jun 11 11:52   10 Clear CLR 86 67     53%   89 29.87 29.83      
Jun 10 06:52 SSE 8 10 Mostly Clear FEW035 66 61     84%     29.85 29.82      
Jun 10 02:52 S 9 10 Clear CLR 67 58     73%     29.83 29.79      
Jun 08 16:52 SSE 8 10 Clear CLR 82 52     35%   81 29.96 29.93      
Jun 07 23:52 Calm 10 Clear CLR 58 51     78%     30.05 30.03